TimeCDT,TemperatureF,Dew PointF,Humidity,Sea Level PressureIn,VisibilityMPH,Wind Direction,Wind SpeedMPH,Gust SpeedMPH,PrecipitationIn,Events,Conditions,WindDirDegrees,DateUTC
12:15 AM,66.2,62.6,88,29.87,10.0,North,6.9,-,N/A,,Overcast,360,2012-10-24 05:15:00
12:35 AM,66.2,62.6,88,29.87,10.0,North,9.2,-,N/A,,Overcast,360,2012-10-24 05:35:00
12:55 AM,64.4,60.8,88,29.87,10.0,North,8.1,-,N/A,,Overcast,10,2012-10-24 05:55:00
1:35 AM,64.4,60.8,88,29.86,10.0,North,8.1,-,N/A,,Scattered Clouds,360,2012-10-24 06:35:00
1:55 AM,64.4,60.8,88,29.86,10.0,NNE,8.1,-,N/A,,Scattered Clouds,20,2012-10-24 06:55:00
2:15 AM,64.4,60.8,88,29.86,7.0,North,6.9,-,N/A,,Mostly Cloudy,10,2012-10-24 07:15:00
2:35 AM,64.4,60.8,88,29.87,7.0,North,6.9,-,N/A,,Overcast,360,2012-10-24 07:35:00
2:55 AM,64.4,60.8,88,29.86,7.0,North,8.1,-,N/A,,Overcast,360,2012-10-24 07:55:00
3:15 AM,62.6,60.8,94,29.86,7.0,North,8.1,-,N/A,,Mostly Cloudy,10,2012-10-24 08:15:00
3:35 AM,62.6,60.8,94,29.86,5.0,North,6.9,-,N/A,,Scattered Clouds,10,2012-10-24 08:35:00
3:55 AM,62.6,60.8,94,29.86,5.0,North,6.9,-,N/A,,Clear,10,2012-10-24 08:55:00
4:15 AM,62.6,60.8,94,29.85,5.0,SE,8.1,-,N/A,,Clear,140,2012-10-24 09:15:00
4:35 AM,62.6,59.0,88,29.85,4.0,NE,8.1,-,N/A,,Clear,40,2012-10-24 09:35:00
4:55 AM,62.6,59.0,88,29.85,3.0,North,8.1,-,N/A,,Clear,360,2012-10-24 09:55:00
5:15 AM,62.6,59.0,88,29.86,4.0,North,6.9,-,N/A,,Scattered Clouds,360,2012-10-24 10:15:00
5:35 AM,62.6,59.0,88,29.86,3.0,North,6.9,-,N/A,,Overcast,10,2012-10-24 10:35:00
6:15 AM,62.6,60.8,94,29.86,4.0,North,8.1,-,N/A,,Overcast,10,2012-10-24 11:15:00
6:35 AM,62.6,60.8,94,29.87,4.0,North,8.1,-,N/A,,Overcast,360,2012-10-24 11:35:00
6:55 AM,62.6,60.8,94,29.87,4.0,North,8.1,-,N/A,,Overcast,360,2012-10-24 11:55:00
7:15 AM,62.6,60.8,94,29.87,4.0,North,6.9,-,N/A,,Overcast,360,2012-10-24 12:15:00
7:35 AM,62.6,60.8,94,29.87,3.0,North,6.9,-,N/A,,Overcast,360,2012-10-24 12:35:00
7:55 AM,62.6,60.8,94,29.88,3.0,NNE,6.9,-,N/A,,Overcast,20,2012-10-24 12:55:00
8:35 AM,62.6,60.8,94,29.88,4.0,SE,6.9,-,N/A,,Overcast,130,2012-10-24 13:35:00
8:55 AM,64.4,60.8,88,29.88,4.0,SE,8.1,-,N/A,,Overcast,140,2012-10-24 13:55:00
9:15 AM,-9999,-9999,N/A,-9999,-9999.0,North,-9999.0,-,N/A,,Unknown,0,2012-10-24 14:15:00
9:35 AM,66.2,62.6,88,29.88,7.0,North,-9999.0,-,N/A,,Overcast,0,2012-10-24 14:35:00
9:55 AM,66.2,62.6,88,29.88,7.0,North,-9999.0,-,N/A,,Overcast,0,2012-10-24 14:55:00
10:15 AM,66.2,62.6,88,29.87,7.0,SSE,9.2,-,N/A,,Overcast,150,2012-10-24 15:15:00
10:35 AM,68.0,62.6,83,29.87,10.0,SSE,8.1,-,N/A,,Overcast,160,2012-10-24 15:35:00
10:55 AM,68.0,62.6,83,29.87,10.0,SSE,8.1,-,N/A,,Overcast,160,2012-10-24 15:55:00
11:15 AM,68.0,62.6,83,29.87,10.0,SSE,10.4,-,N/A,,Overcast,160,2012-10-24 16:15:00
11:35 AM,69.8,62.6,78,29.87,10.0,South,11.5,-,N/A,,Overcast,170,2012-10-24 16:35:00
11:55 AM,69.8,62.6,78,29.86,10.0,South,9.2,-,N/A,,Overcast,170,2012-10-24 16:55:00
12:15 PM,71.6,62.6,73,29.85,10.0,SSE,9.2,-,N/A,,Scattered Clouds,160,2012-10-24 17:15:00
12:35 PM,71.6,62.6,73,29.84,10.0,South,10.4,-,N/A,,Mostly Cloudy,170,2012-10-24 17:35:00
12:55 PM,73.4,62.6,69,29.83,10.0,SE,9.2,-,N/A,,Overcast,140,2012-10-24 17:55:00
1:15 PM,73.4,62.6,69,29.82,10.0,South,9.2,-,N/A,,Overcast,170,2012-10-24 18:15:00
1:35 PM,73.4,62.6,69,29.82,10.0,North,10.4,-,N/A,,Overcast,360,2012-10-24 18:35:00
1:55 PM,73.4,62.6,69,29.81,10.0,North,9.2,-,N/A,,Overcast,360,2012-10-24 18:55:00
2:15 PM,73.4,62.6,69,29.80,10.0,North,11.5,-,N/A,,Overcast,360,2012-10-24 19:15:00
2:35 PM,77.0,62.6,61,29.79,10.0,North,16.1,-,N/A,,Scattered Clouds,360,2012-10-24 19:35:00
2:55 PM,75.2,62.6,65,29.78,10.0,NNE,16.1,21.9,N/A,,Scattered Clouds,20,2012-10-24 19:55:00
3:15 PM,75.2,62.6,65,29.78,10.0,North,16.1,24.2,N/A,,Mostly Cloudy,360,2012-10-24 20:15:00
3:35 PM,75.2,62.6,65,29.77,10.0,North,13.8,19.6,N/A,,Overcast,360,2012-10-24 20:35:00
3:55 PM,77.0,62.6,61,29.77,10.0,North,15.0,-,N/A,,Mostly Cloudy,10,2012-10-24 20:55:00
4:15 PM,77.0,64.4,65,29.76,10.0,NNE,10.4,-,N/A,,Scattered Clouds,20,2012-10-24 21:15:00
4:35 PM,77.0,62.6,61,29.76,10.0,North,12.7,19.6,N/A,,Mostly Cloudy,360,2012-10-24 21:35:00
4:55 PM,77.0,62.6,61,29.76,10.0,North,18.4,25.3,N/A,,Scattered Clouds,360,2012-10-24 21:55:00
5:15 PM,77.0,62.6,61,29.76,10.0,North,15.0,25.3,N/A,,Mostly Cloudy,360,2012-10-24 22:15:00
5:35 PM,75.2,62.6,65,29.76,10.0,North,13.8,19.6,N/A,,Overcast,360,2012-10-24 22:35:00
5:55 PM,75.2,62.6,65,29.76,10.0,North,12.7,-,N/A,,Mostly Cloudy,360,2012-10-24 22:55:00
6:15 PM,73.4,62.6,69,29.77,10.0,North,10.4,17.3,N/A,,Scattered Clouds,360,2012-10-24 23:15:00
6:35 PM,73.4,62.6,69,29.77,10.0,North,8.1,-,N/A,,Mostly Cloudy,360,2012-10-24 23:35:00
6:55 PM,73.4,62.6,69,29.78,10.0,North,9.2,-,N/A,,Overcast,360,2012-10-24 23:55:00
7:15 PM,73.4,62.6,69,29.78,10.0,North,9.2,-,N/A,,Overcast,360,2012-10-25 00:15:00
7:35 PM,73.4,62.6,69,29.77,10.0,North,11.5,-,N/A,,Overcast,360,2012-10-25 00:35:00
7:55 PM,73.4,62.6,69,29.77,10.0,North,9.2,-,N/A,,Overcast,360,2012-10-25 00:55:00
8:15 PM,71.6,62.6,73,29.78,10.0,North,9.2,-,N/A,,Overcast,360,2012-10-25 01:15:00
8:35 PM,71.6,62.6,73,29.78,10.0,North,9.2,-,N/A,,Overcast,360,2012-10-25 01:35:00
8:55 PM,71.6,62.6,73,29.78,10.0,North,10.4,-,N/A,,Overcast,360,2012-10-25 01:55:00
9:15 PM,71.6,62.6,73,29.78,10.0,North,9.2,-,N/A,,Overcast,360,2012-10-25 02:15:00
9:35 PM,71.6,62.6,73,29.77,10.0,North,8.1,-,N/A,,Mostly Cloudy,360,2012-10-25 02:35:00
9:55 PM,69.8,62.6,78,29.76,10.0,North,9.2,-,N/A,,Mostly Cloudy,360,2012-10-25 02:55:00
10:35 PM,69.8,62.6,78,29.75,10.0,North,10.4,-,N/A,,Mostly Cloudy,360,2012-10-25 03:35:00
10:55 PM,69.8,62.6,78,29.75,10.0,North,11.5,-,N/A,,Overcast,360,2012-10-25 03:55:00
11:15 PM,69.8,62.6,78,29.75,10.0,North,12.7,17.3,N/A,,Mostly Cloudy,360,2012-10-25 04:15:00
11:55 PM,69.8,62.6,78,29.74,10.0,North,9.2,-,N/A,,Overcast,360,2012-10-25 04:55:00